Weather in Aizkraukle

Latvia     56°35′50″N   25°15′14″E
temp.,
°C
wind,
m/s
gust,
m/s
humid.,
%
clouds,
%
prec.,
mm/h
press.,
hPa
HPBL,
m
18 april, sun
sun1800:00+10ne2880100 0.0 1023222
03:00+8ne388780 0.0 1023186
06:00+7ne399243 0.0 1023208
09:00+11ene496675 0.0 1023454
12:00+15ene574367 0.0 1023992
15:00+17ene46386 0.0 10231581
18:00+16ene46401 0.0 10221817
21:00+10ene310600 0.0 1024232
19 april, mon
mon1900:00+7ne310660 0.0 1025226
03:00+6ne39745 0.0 1025188
06:00+4ene39825 0.0 1025222
09:00+8ene4868100 0.0 1025357
12:00+13e45486 0.0 10251494
15:00+15e453986 0.0 10242195
18:00+12e4653100 0.0 1023863
21:00+9e2768100 0.0 1024275
20 april, tue
tue2000:00+8ene277496 0.0 1023333
03:00+7ene267898 0.0 1022235
06:00+5ne269231 0.1 1021148
09:00+8e466858 0.1 1020664
12:00+8e4558100 0.1 10191077
15:00+11e344699 0.4 10171663
18:00+10e3351100 0.1 10151335
21:00+6e267477 0.1 1016132
21 april, wed
wed2100:00+4e22835 0.0 101434
03:00+2nne11875 0.0 101310
06:00+2nne22905 0.0 101120
09:00+7nnw246510 0.0 1009476
12:00+10nw464660 0.0 10081781
15:00+12wnw564097 0.0 10062266
18:00+12nw364495 0.0 10061828
21:00+8wsw226796 0.0 100718
22 april, thu
thu2200:00+7wsw2476100 0.0 1008134
03:00+6wsw258184 0.0 1010170
06:00+3sw239499 0.0 101171
09:00+8ssw22685 0.0 1012384
12:00+12s34479 0.0 10131558
15:00+11ssw346489 0.3 1014992
18:00+6w3589100 2.6 1017305
21:00+5w019183 2.6 101911